| time (UTC) | temp F | wind direction | speed MPH | gust MPH | rain 1hr in | rain 24hr in | rain mn in | humidity % | barometer mb |
| 20260504100103 | 45 | 98 | 0.0 | 3.0 | 0.00 | 0.00 | 0.00 | 85 | 1013.5 |
| 20260504081609 | 48 | 61 | 0.0 | 3.0 | 0.00 | 0.00 | 0.00 | 82 | 1014.2 |
| 20260504080104 | 48 | 0 | 0.0 | 6.0 | 0.00 | 0.00 | 0.00 | 82 | 1014.3 |
| 20260504044600 | 50 | 0 | 0.0 | 2.0 | 0.00 | 0.00 | 0.00 | 76 | 1015.6 |
| 20260504043100 | 50 | 0 | 1.0 | 5.0 | 0.00 | 0.00 | 0.00 | 73 | 1015.6 |
| 20260504041603 | 50 | 130 | 1.0 | 4.0 | 0.00 | 0.00 | 0.00 | 69 | 1015.9 |
| 20260504034557 | 49 | 168 | 0.0 | 3.0 | 0.00 | 0.00 | 0.00 | 67 | 1015.7 |
| 20260504033059 | 50 | 0 | 0.0 | 0.0 | 0.00 | 0.00 | 0.00 | 67 | 1015.6 |
| 20260504031559 | 50 | 0 | 0.0 | 0.0 | 0.00 | 0.00 | 0.00 | 66 | 1015.4 |
| 20260504030055 | 50 | 0 | 0.0 | 0.0 | 0.00 | 0.00 | 0.00 | 66 | 1015.5 |
| 20260504024601 | 50 | 0 | 0.0 | 2.0 | 0.00 | 0.00 | 0.00 | 65 | 1015.6 |
| 20260504023058 | 50 | 0 | 1.0 | 2.0 | 0.00 | 0.00 | 0.00 | 63 | 1015.4 |
| 20260504021556 | 51 | 0 | 0.0 | 3.0 | 0.00 | 0.00 | 0.00 | 60 | 1015.1 |
| 20260504020131 | 51 | 0 | 0.0 | 2.0 | 0.00 | 0.00 | 0.00 | 58 | 1015.1 |
| 20260504014605 | 52 | 0 | 0.0 | 2.0 | 0.00 | 0.00 | 0.00 | 56 | 1015.1 |
| 20260504013115 | 52 | 0 | 1.0 | 4.0 | 0.00 | 0.00 | 0.00 | 54 | 1015.0 |
| 20260504011554 | 53 | 170 | 0.0 | 2.0 | 0.00 | 0.00 | 0.00 | 51 | 1015.1 |
| 20260504010058 | 55 | 168 | 0.0 | 2.0 | 0.00 | 0.00 | 0.00 | 49 | 1015.0 |
| 20260504004628 | 56 | 190 | 1.0 | 3.0 | 0.00 | 0.00 | 0.00 | 44 | 1014.6 |
| 20260504003100 | 58 | 0 | 1.0 | 4.0 | 0.00 | 0.00 | 0.00 | 42 | 1014.8 |
| 20260504001621 | 59 | 236 | 2.0 | 4.0 | 0.00 | 0.00 | 0.00 | 41 | 1014.8 |
| 20260504000105 | 60 | 247 | 2.0 | 7.0 | 0.00 | 0.00 | 0.00 | 38 | 1014.7 |
| 20260503234604 | 60 | 264 | 2.0 | 7.0 | 0.00 | 0.00 | 0.00 | 36 | 1014.6 |
| 20260503233102 | 61 | 281 | 0.0 | 7.0 | 0.00 | 0.00 | 0.00 | 36 | 1014.8 |
| 20260503231555 | 62 | 248 | 4.0 | 7.0 | 0.00 | 0.00 | 0.00 | 33 | 1015.0 |
| 20260503230112 | 62 | 270 | 3.0 | 12.0 | 0.00 | 0.00 | 0.00 | 32 | 1015.1 |
| 20260503224601 | 62 | 301 | 2.0 | 5.0 | 0.00 | 0.00 | 0.00 | 32 | 1015.2 |
| 20260503223056 | 63 | 241 | 7.0 | 12.0 | 0.00 | 0.00 | 0.00 | 31 | 1015.2 |
| 20260503221603 | 63 | 245 | 3.0 | 11.0 | 0.00 | 0.00 | 0.00 | 33 | 1015.2 |
| 20260503220056 | 63 | 243 | 1.0 | 8.0 | 0.00 | 0.00 | 0.00 | 30 | 1015.3 |
| 20260503214559 | 62 | 306 | 2.0 | 11.0 | 0.00 | 0.00 | 0.00 | 31 | 1015.5 |
| 20260503213054 | 63 | 244 | 2.0 | 14.0 | 0.00 | 0.00 | 0.00 | 31 | 1015.4 |
| 20260503211554 | 63 | 291 | 5.0 | 14.0 | 0.00 | 0.00 | 0.00 | 30 | 1015.6 |
| 20260503210057 | 63 | 263 | 3.0 | 12.0 | 0.00 | 0.00 | 0.00 | 33 | 1015.6 |
| 20260503204557 | 63 | 233 | 5.0 | 10.0 | 0.00 | 0.00 | 0.00 | 32 | 1015.7 |
| 20260503203115 | 63 | 247 | 1.0 | 10.0 | 0.00 | 0.00 | 0.00 | 32 | 1016.1 |
| 20260503201602 | 62 | 263 | 2.0 | 13.0 | 0.00 | 0.00 | 0.00 | 33 | 1016.4 |
| 20260503200106 | 62 | 280 | 5.0 | 13.0 | 0.00 | 0.00 | 0.00 | 32 | 1016.5 |
| 20260503194602 | 61 | 272 | 4.0 | 12.0 | 0.00 | 0.00 | 0.00 | 31 | 1017.1 |
| 20260503193056 | 61 | 322 | 3.0 | 11.0 | 0.00 | 0.00 | 0.00 | 35 | 1017.4 |
| 20260503191601 | 60 | 312 | 8.0 | 11.0 | 0.00 | 0.00 | 0.00 | 34 | 1017.8 |
| 20260503190111 | 60 | 293 | 3.0 | 6.0 | 0.00 | 0.00 | 0.00 | 36 | 1017.9 |
| 20260503184605 | 59 | 266 | 4.0 | 13.0 | 0.00 | 0.00 | 0.00 | 37 | 1018.3 |
| 20260503183102 | 59 | 281 | 2.0 | 11.0 | 0.00 | 0.00 | 0.00 | 35 | 1018.5 |
| 20260503181601 | 58 | 39 | 4.0 | 13.0 | 0.00 | 0.00 | 0.00 | 39 | 1018.7 |
| 20260503180107 | 58 | 345 | 4.0 | 15.0 | 0.00 | 0.00 | 0.00 | 38 | 1018.9 |
| 20260503174600 | 58 | 322 | 7.0 | 11.0 | 0.00 | 0.00 | 0.00 | 36 | 1019.1 |
| 20260503173055 | 58 | 177 | 2.0 | 8.0 | 0.00 | 0.00 | 0.00 | 37 | 1019.3 |
| 20260503171604 | 57 | 23 | 2.0 | 11.0 | 0.00 | 0.00 | 0.00 | 36 | 1019.5 |
| 20260503170151 | 57 | 335 | 3.0 | 10.0 | 0.00 | 0.00 | 0.00 | 39 | 1019.8 |
| 20260503140133 | 47 | 302 | 4.0 | 9.0 | 0.00 | 0.00 | 0.00 | 58 | 1020.9 |